Time,TemperatureF,DewpointF,PressureIn,WindDirection,WindDirectionDegrees,WindSpeedMPH,WindSpeedGustMPH,Humidity,HourlyPrecipIn,Conditions,Clouds,dailyrainin,SoftwareType,DateUTC
2013-01-16 00:03:00,27.0,23.0,27.97,East,84,0.0,0.0,83,0.00,,,0.00,,2013-01-16 05:03:00,
2013-01-16 00:12:00,27.0,23.0,27.97,East,84,0.0,0.0,83,0.00,,,0.00,,2013-01-16 05:12:00,
2013-01-16 00:23:00,28.0,23.0,27.97,East,94,0.0,1.0,81,0.00,,,0.00,,2013-01-16 05:23:00,
2013-01-16 00:32:00,27.0,22.0,27.96,East,91,0.0,0.0,82,0.00,,,0.00,,2013-01-16 05:32:00,
2013-01-16 00:42:00,27.0,22.0,27.96,East,91,0.0,0.0,82,0.00,,,0.00,,2013-01-16 05:42:00,
2013-01-16 00:53:00,27.0,23.0,27.96,East,91,0.0,0.0,83,0.00,,,0.00,,2013-01-16 05:53:00,
2013-01-16 01:03:00,27.0,23.0,27.97,East,91,0.0,0.0,84,0.00,,,0.00,,2013-01-16 06:03:00,
2013-01-16 01:12:00,27.0,23.0,27.97,East,91,0.0,0.0,84,0.00,,,0.00,,2013-01-16 06:12:00,
2013-01-16 01:22:00,27.0,23.0,27.96,WSW,240,0.0,0.0,85,0.00,,,0.00,,2013-01-16 06:22:00,
2013-01-16 01:32:00,27.0,23.0,27.95,WSW,241,0.0,1.0,84,0.00,,,0.00,,2013-01-16 06:32:00,
2013-01-16 01:43:00,27.0,23.0,27.95,WSW,241,0.0,1.0,84,0.00,,,0.00,,2013-01-16 06:43:00,
2013-01-16 01:53:00,27.0,23.0,27.95,WSW,241,0.0,0.0,85,0.00,,,0.00,,2013-01-16 06:53:00,
2013-01-16 02:02:00,27.0,23.0,27.95,WSW,240,0.0,0.0,85,0.00,,,0.00,,2013-01-16 07:02:00,
2013-01-16 02:12:00,27.0,23.0,27.95,WSW,240,0.0,0.0,85,0.00,,,0.00,,2013-01-16 07:12:00,
2013-01-16 02:22:00,27.0,23.0,27.95,WSW,240,0.0,0.0,85,0.00,,,0.00,,2013-01-16 07:22:00,
2013-01-16 02:33:00,27.0,23.0,27.95,WSW,241,0.0,0.0,85,0.00,,,0.00,,2013-01-16 07:33:00,
2013-01-16 02:42:00,27.0,23.0,27.95,WSW,241,0.0,0.0,85,0.00,,,0.00,,2013-01-16 07:42:00,
2013-01-16 02:52:00,27.0,23.0,27.94,WSW,240,0.0,0.0,84,0.00,,,0.00,,2013-01-16 07:52:00,
2013-01-16 03:03:00,27.0,23.0,27.94,SE,130,0.0,1.0,84,0.00,,,0.00,,2013-01-16 08:03:00,
2013-01-16 03:12:00,27.0,23.0,27.94,SE,130,0.0,1.0,84,0.00,,,0.00,,2013-01-16 08:12:00,
2013-01-16 03:22:00,27.0,23.0,27.93,SE,130,0.0,0.0,84,0.00,,,0.00,,2013-01-16 08:22:00,
2013-01-16 03:32:00,27.0,23.0,27.92,SE,130,0.0,0.0,84,0.00,,,0.00,,2013-01-16 08:32:00,
2013-01-16 03:42:00,27.0,23.0,27.92,SE,130,0.0,0.0,84,0.00,,,0.00,,2013-01-16 08:42:00,
2013-01-16 03:53:00,27.0,23.0,27.91,NNW,333,0.0,1.0,85,0.00,,,0.00,,2013-01-16 08:53:00,
2013-01-16 04:02:00,27.0,23.0,27.90,ENE,74,0.0,1.0,86,0.00,,,0.00,,2013-01-16 09:02:00,
2013-01-16 04:12:00,27.0,23.0,27.90,ENE,74,0.0,1.0,86,0.00,,,0.00,,2013-01-16 09:12:00,
2013-01-16 04:22:00,27.0,23.0,27.89,ENE,75,0.0,2.0,86,0.00,,,0.00,,2013-01-16 09:22:00,
2013-01-16 04:32:00,27.0,23.0,27.89,NNE,28,0.0,2.0,86,0.00,,,0.00,,2013-01-16 09:32:00,
2013-01-16 04:42:00,27.0,23.0,27.89,NNE,28,0.0,2.0,86,0.00,,,0.00,,2013-01-16 09:42:00,
2013-01-16 04:53:00,27.0,23.0,27.88,ESE,103,1.0,2.0,86,0.00,,,0.00,,2013-01-16 09:53:00,
2013-01-16 05:02:00,28.0,24.0,27.88,ESE,103,0.0,0.0,85,0.00,,,0.00,,2013-01-16 10:02:00,
2013-01-16 05:12:00,28.0,24.0,27.88,ESE,103,0.0,0.0,85,0.00,,,0.00,,2013-01-16 10:12:00,
2013-01-16 05:22:00,28.0,24.0,27.88,East,84,1.0,2.0,85,0.00,,,0.00,,2013-01-16 10:22:00,
2013-01-16 05:32:00,28.0,24.0,27.87,SE,132,2.0,3.0,83,0.00,,,0.00,,2013-01-16 10:32:00,
2013-01-16 05:42:00,28.0,24.0,27.87,SE,132,2.0,3.0,83,0.00,,,0.00,,2013-01-16 10:42:00,
2013-01-16 05:53:00,28.0,25.0,27.86,NNE,26,0.0,2.0,87,0.00,,,0.00,,2013-01-16 10:53:00,
2013-01-16 06:02:00,27.0,24.0,27.85,ENE,76,1.0,2.0,90,0.00,,,0.00,,2013-01-16 11:02:00,
2013-01-16 06:12:00,27.0,24.0,27.85,ENE,76,1.0,2.0,90,0.00,,,0.00,,2013-01-16 11:12:00,
2013-01-16 06:23:00,27.0,25.0,27.85,ENE,60,2.0,3.0,91,0.00,,,0.00,,2013-01-16 11:23:00,
2013-01-16 06:33:00,27.0,25.0,27.85,East,84,1.0,4.0,92,0.00,,,0.00,,2013-01-16 11:33:00,
2013-01-16 06:43:00,27.0,25.0,27.85,East,84,1.0,4.0,92,0.00,,,0.00,,2013-01-16 11:43:00,
2013-01-16 06:53:00,26.0,24.0,27.85,East,84,3.0,5.0,92,0.00,,,0.00,,2013-01-16 11:53:00,
2013-01-16 07:03:00,26.0,24.0,27.85,East,84,3.0,5.0,92,0.00,,,0.00,,2013-01-16 12:03:00,
2013-01-16 07:13:00,26.0,24.0,27.85,East,84,3.0,5.0,92,0.00,,,0.00,,2013-01-16 12:13:00,
2013-01-16 07:22:00,26.0,24.0,27.85,East,91,1.0,2.0,93,0.00,,,0.00,,2013-01-16 12:22:00,
2013-01-16 07:33:00,26.0,24.0,27.84,ENE,76,1.0,3.0,93,0.00,,,0.00,,2013-01-16 12:33:00,
2013-01-16 07:43:00,26.0,24.0,27.84,ENE,76,1.0,3.0,93,0.00,,,0.00,,2013-01-16 12:43:00,
2013-01-16 07:53:00,26.0,25.0,27.85,ESE,105,1.0,2.0,94,0.00,,,0.00,,2013-01-16 12:53:00,
2013-01-16 08:03:00,26.0,25.0,27.84,East,79,0.0,2.0,94,0.00,,,0.00,,2013-01-16 13:03:00,
2013-01-16 08:12:00,26.0,25.0,27.84,East,79,0.0,2.0,94,0.00,,,0.00,,2013-01-16 13:12:00,
2013-01-16 08:23:00,26.0,25.0,27.83,East,80,1.0,1.0,94,0.00,,,0.00,,2013-01-16 13:23:00,
2013-01-16 08:33:00,26.0,25.0,27.83,East,89,1.0,2.0,94,0.00,,,0.00,,2013-01-16 13:33:00,
2013-01-16 08:43:00,26.0,25.0,27.83,East,89,1.0,2.0,94,0.00,,,0.00,,2013-01-16 13:43:00,
2013-01-16 08:53:00,27.0,26.0,27.83,ENE,78,0.0,1.0,94,0.00,,,0.00,,2013-01-16 13:53:00,
2013-01-16 09:03:00,27.0,26.0,27.83,ENE,78,0.0,1.0,94,0.00,,,0.00,,2013-01-16 14:03:00,
2013-01-16 09:12:00,27.0,26.0,27.83,ENE,78,0.0,1.0,94,0.00,,,0.00,,2013-01-16 14:12:00,
2013-01-16 09:23:00,27.0,26.0,27.81,East,87,2.0,3.0,94,0.00,,,0.00,,2013-01-16 14:23:00,
2013-01-16 09:33:00,27.0,26.0,27.81,ESE,102,0.0,3.0,94,0.00,,,0.00,,2013-01-16 14:33:00,
2013-01-16 09:43:00,27.0,26.0,27.81,ESE,102,0.0,3.0,94,0.00,,,0.00,,2013-01-16 14:43:00,
2013-01-16 09:53:00,27.0,26.0,27.78,East,91,2.0,3.0,94,0.00,,,0.00,,2013-01-16 14:53:00,
2013-01-16 10:03:00,28.0,27.0,27.78,East,98,0.0,1.0,94,0.00,,,0.00,,2013-01-16 15:03:00,
2013-01-16 10:12:00,28.0,27.0,27.78,East,98,0.0,1.0,94,0.00,,,0.00,,2013-01-16 15:12:00,
2013-01-16 10:23:00,28.0,26.0,27.77,ENE,64,0.0,1.0,93,0.00,,,0.00,,2013-01-16 15:23:00,
2013-01-16 10:33:00,28.0,26.0,27.76,ESE,105,0.0,0.0,93,0.00,,,0.00,,2013-01-16 15:33:00,
2013-01-16 10:43:00,28.0,26.0,27.76,ESE,105,0.0,0.0,93,0.00,,,0.00,,2013-01-16 15:43:00,
2013-01-16 10:53:00,28.0,26.0,27.75,ESE,114,0.0,1.0,92,0.00,,,0.00,,2013-01-16 15:53:00,
2013-01-16 11:03:00,28.0,26.0,27.73,East,94,0.0,2.0,92,0.00,,,0.00,,2013-01-16 16:03:00,
2013-01-16 11:12:00,28.0,26.0,27.73,East,94,0.0,2.0,92,0.00,,,0.00,,2013-01-16 16:12:00,
2013-01-16 11:23:00,28.0,26.0,27.72,East,96,0.0,2.0,93,0.00,,,0.00,,2013-01-16 16:23:00,
2013-01-16 11:33:00,28.0,26.0,27.71,East,82,0.0,1.0,93,0.00,,,0.00,,2013-01-16 16:33:00,
2013-01-16 11:43:00,28.0,26.0,27.71,East,82,0.0,1.0,93,0.00,,,0.00,,2013-01-16 16:43:00,
2013-01-16 11:53:00,29.0,27.0,27.70,ESE,108,0.0,2.0,93,0.00,,,0.00,,2013-01-16 16:53:00,
2013-01-16 12:03:00,29.0,27.0,27.71,West,269,0.0,1.0,92,0.00,,,0.00,,2013-01-16 17:03:00,
2013-01-16 12:12:00,29.0,27.0,27.71,West,269,0.0,1.0,92,0.00,,,0.00,,2013-01-16 17:12:00,
2013-01-16 12:23:00,29.0,27.0,27.68,East,89,1.0,2.0,92,0.00,,,0.00,,2013-01-16 17:23:00,
2013-01-16 12:33:00,28.0,26.0,27.66,ENE,67,1.0,2.0,93,0.00,,,0.00,,2013-01-16 17:33:00,
2013-01-16 12:44:00,28.0,26.0,27.66,ENE,67,1.0,2.0,93,0.00,,,0.00,,2013-01-16 17:44:00,
2013-01-16 12:53:00,29.0,27.0,27.67,East,90,0.0,1.0,93,0.00,,,0.00,,2013-01-16 17:53:00,
2013-01-16 13:03:00,29.0,27.0,27.65,SE,124,0.0,2.0,93,0.00,,,0.00,,2013-01-16 18:03:00,
2013-01-16 13:13:00,29.0,27.0,27.65,SE,124,0.0,2.0,93,0.00,,,0.00,,2013-01-16 18:13:00,
2013-01-16 13:23:00,29.0,27.0,27.65,ESE,123,0.0,0.0,93,0.00,,,0.00,,2013-01-16 18:23:00,
2013-01-16 13:33:00,29.0,27.0,27.62,ESE,115,1.0,3.0,93,0.00,,,0.00,,2013-01-16 18:33:00,
2013-01-16 13:42:00,29.0,27.0,27.62,ESE,115,1.0,3.0,93,0.00,,,0.00,,2013-01-16 18:42:00,
2013-01-16 13:53:00,29.0,27.0,27.61,ENE,74,0.0,1.0,93,0.00,,,0.00,,2013-01-16 18:53:00,
2013-01-16 14:03:00,29.0,27.0,27.61,ESE,109,0.0,1.0,93,0.00,,,0.00,,2013-01-16 19:03:00,
2013-01-16 14:13:00,29.0,27.0,27.61,ESE,109,0.0,1.0,93,0.00,,,0.00,,2013-01-16 19:13:00,
2013-01-16 14:23:00,29.0,27.0,27.60,ESE,109,0.0,1.0,93,0.00,,,0.00,,2013-01-16 19:23:00,
2013-01-16 14:33:00,29.0,27.0,27.59,ESE,104,0.0,2.0,93,0.00,,,0.00,,2013-01-16 19:33:00,
2013-01-16 14:43:00,29.0,27.0,27.59,ESE,104,0.0,2.0,93,0.00,,,0.00,,2013-01-16 19:43:00,
2013-01-16 14:53:00,29.0,27.0,27.60,East,90,0.0,1.0,94,0.00,,,0.00,,2013-01-16 19:53:00,
2013-01-16 15:03:00,29.0,27.0,27.59,ESE,110,0.0,1.0,94,0.00,,,0.00,,2013-01-16 20:03:00,
2013-01-16 15:12:00,29.0,27.0,27.59,ESE,110,0.0,1.0,94,0.00,,,0.00,,2013-01-16 20:12:00,
2013-01-16 15:23:00,29.0,27.0,27.59,SE,124,0.0,1.0,93,0.00,,,0.00,,2013-01-16 20:23:00,
2013-01-16 15:33:00,29.0,27.0,27.59,SW,222,0.0,0.0,93,0.00,,,0.00,,2013-01-16 20:33:00,
2013-01-16 15:43:00,29.0,27.0,27.59,SW,222,0.0,0.0,93,0.00,,,0.00,,2013-01-16 20:43:00,
2013-01-16 15:53:00,29.0,27.0,27.59,SE,127,0.0,1.0,93,0.00,,,0.00,,2013-01-16 20:53:00,
2013-01-16 16:03:00,29.0,27.0,27.58,SE,126,1.0,3.0,93,0.00,,,0.00,,2013-01-16 21:03:00,
2013-01-16 16:12:00,29.0,27.0,27.58,SE,126,1.0,3.0,93,0.00,,,0.00,,2013-01-16 21:12:00,
2013-01-16 16:23:00,29.0,27.0,27.59,ESE,113,0.0,1.0,93,0.00,,,0.00,,2013-01-16 21:23:00,
2013-01-16 16:33:00,29.0,27.0,27.59,ESE,114,0.0,1.0,94,0.00,,,0.00,,2013-01-16 21:33:00,
2013-01-16 16:43:00,29.0,27.0,27.59,ESE,114,0.0,1.0,94,0.00,,,0.00,,2013-01-16 21:43:00,
2013-01-16 16:53:00,29.0,27.0,27.58,ESE,113,0.0,1.0,94,0.00,,,0.00,,2013-01-16 21:53:00,
2013-01-16 17:03:00,29.0,28.0,27.58,ESE,113,0.0,0.0,95,0.00,,,0.00,,2013-01-16 22:03:00,
2013-01-16 17:12:00,29.0,28.0,27.58,ESE,113,0.0,0.0,95,0.00,,,0.00,,2013-01-16 22:12:00,
2013-01-16 17:23:00,28.0,27.0,27.57,ESE,115,1.0,1.0,95,0.00,,,0.00,,2013-01-16 22:23:00,
2013-01-16 17:33:00,28.0,27.0,27.57,ESE,102,0.0,1.0,95,0.00,,,0.00,,2013-01-16 22:33:00,
2013-01-16 17:43:00,28.0,27.0,27.57,ESE,102,0.0,1.0,95,0.00,,,0.00,,2013-01-16 22:43:00,
2013-01-16 17:53:00,28.0,27.0,27.56,East,100,0.0,0.0,95,0.00,,,0.00,,2013-01-16 22:53:00,
2013-01-16 18:03:00,28.0,27.0,27.55,East,100,0.0,0.0,95,0.00,,,0.00,,2013-01-16 23:03:00,
2013-01-16 18:12:00,28.0,27.0,27.55,East,100,0.0,0.0,95,0.00,,,0.00,,2013-01-16 23:12:00,
2013-01-16 18:23:00,28.0,27.0,27.56,East,100,0.0,0.0,95,0.00,,,0.00,,2013-01-16 23:23:00,
2013-01-16 18:32:00,28.0,27.0,27.55,East,100,0.0,0.0,95,0.00,,,0.00,,2013-01-16 23:32:00,
2013-01-16 18:42:00,28.0,27.0,27.55,East,100,0.0,0.0,95,0.00,,,0.00,,2013-01-16 23:42:00,
2013-01-16 18:53:00,28.0,27.0,27.55,East,100,0.0,0.0,96,0.00,,,0.00,,2013-01-16 23:53:00,
2013-01-16 19:02:00,28.0,27.0,27.55,East,100,0.0,0.0,96,0.00,,,0.00,,2013-01-17 00:02:00,
2013-01-16 19:12:00,28.0,27.0,27.55,East,100,0.0,0.0,96,0.00,,,0.00,,2013-01-17 00:12:00,
2013-01-16 19:22:00,28.0,27.0,27.55,East,100,0.0,0.0,96,0.00,,,0.00,,2013-01-17 00:22:00,
2013-01-16 19:32:00,28.0,27.0,27.56,East,100,0.0,0.0,96,0.00,,,0.00,,2013-01-17 00:32:00,
2013-01-16 19:42:00,28.0,27.0,27.56,East,100,0.0,0.0,96,0.00,,,0.00,,2013-01-17 00:42:00,
2013-01-16 19:53:00,28.0,27.0,27.56,East,100,0.0,0.0,95,0.00,,,0.00,,2013-01-17 00:53:00,
2013-01-16 20:02:00,28.0,27.0,27.55,East,92,0.0,1.0,95,0.00,,,0.00,,2013-01-17 01:02:00,
2013-01-16 20:12:00,28.0,27.0,27.55,East,92,0.0,1.0,95,0.00,,,0.00,,2013-01-17 01:12:00,
2013-01-16 20:22:00,28.0,27.0,27.55,East,91,0.0,0.0,95,0.00,,,0.00,,2013-01-17 01:22:00,
2013-01-16 20:31:00,28.0,27.0,27.55,East,91,0.0,0.0,95,0.00,,,0.00,,2013-01-17 01:31:00,
2013-01-16 20:33:00,28.0,27.0,27.55,East,91,0.0,0.0,95,0.00,,,0.00,,2013-01-17 01:33:00,
2013-01-16 20:42:00,28.0,27.0,27.55,East,91,0.0,0.0,95,0.00,,,0.00,,2013-01-17 01:42:00,
2013-01-16 20:53:00,28.0,27.0,27.55,East,91,0.0,0.0,95,0.00,,,0.00,,2013-01-17 01:53:00,
2013-01-16 21:02:00,28.0,27.0,27.55,East,91,0.0,0.0,95,0.00,,,0.00,,2013-01-17 02:02:00,
2013-01-16 21:12:00,28.0,27.0,27.55,East,91,0.0,0.0,95,0.00,,,0.00,,2013-01-17 02:12:00,
2013-01-16 21:22:00,28.0,27.0,27.55,East,91,0.0,0.0,95,0.00,,,0.00,,2013-01-17 02:22:00,
2013-01-16 22:03:00,28.0,27.0,27.53,East,94,0.0,1.0,95,0.00,,,0.00,,2013-01-17 03:03:00,
2013-01-16 22:12:00,28.0,27.0,27.53,East,94,0.0,1.0,95,0.00,,,0.00,,2013-01-17 03:12:00,
2013-01-16 22:22:00,28.0,27.0,27.53,NE,53,0.0,1.0,95,0.00,,,0.00,,2013-01-17 03:22:00,
2013-01-16 22:32:00,28.0,27.0,27.52,ESE,118,0.0,1.0,95,0.00,,,0.00,,2013-01-17 03:32:00,
2013-01-16 22:43:00,28.0,27.0,27.52,ESE,118,0.0,1.0,95,0.00,,,0.00,,2013-01-17 03:43:00,
2013-01-16 22:53:00,29.0,28.0,27.52,WSW,241,0.0,2.0,96,0.00,,,0.00,,2013-01-17 03:53:00,
2013-01-16 23:02:00,29.0,28.0,27.52,WSW,243,1.0,4.0,95,0.00,,,0.00,,2013-01-17 04:02:00,
2013-01-16 23:12:00,29.0,27.0,27.52,SW,214,1.0,3.0,94,0.00,,,0.00,,2013-01-17 04:12:00,
2013-01-16 23:22:00,29.0,27.0,27.52,SW,214,1.0,3.0,94,0.00,,,0.00,,2013-01-17 04:22:00,
2013-01-16 23:33:00,28.0,27.0,27.52,SSW,212,0.0,1.0,94,0.00,,,0.00,,2013-01-17 04:33:00,
2013-01-16 23:42:00,28.0,27.0,27.52,SSW,212,0.0,1.0,94,0.00,,,0.00,,2013-01-17 04:42:00,
2013-01-16 23:52:00,27.0,26.0,27.53,SSW,212,0.0,0.0,94,0.00,,,0.00,,2013-01-17 04:52:00,